Location: Invercargill
(46.4000°S, 168.3500°E)
Time: 07:42:03
(UTC+12:00)

Vanguard 1 Rocket - All Passes

Search period start: 22 July 2019 00:00
Search period end: 01 August 2019 00:00
Orbit: 651 x 4225 km, 34.3° (Epoch: 20 July)

Date Brightness Start Highest point End Pass type
(mag) Time Alt. Az. Time Alt. Az. Time Alt. Az.
22 Jul - 01:15:26 10° NW 01:18:50 19° N 01:22:04 10° NE night (unlit)
22 Jul - 03:41:42 10° NNW 03:42:52 11° NNW 03:44:05 10° N night (unlit)
22 Jul - 21:39:51 10° NNW 21:43:47 14° NNE 21:46:55 10° NE visible
23 Jul - 00:04:09 10° NW 00:08:15 21° N 00:11:39 10° NE night (unlit)
23 Jul - 02:29:43 10° NW 02:32:10 14° NNW 02:34:43 10° NNE night (unlit)
23 Jul - 20:29:41 10° N 20:32:35 12° NNE 20:35:04 10° NE visible
23 Jul - 22:52:36 10° NW 22:57:32 21° N 23:01:15 10° NE visible
24 Jul - 01:18:15 10° NW 01:21:35 18° N 01:24:42 10° NE night (unlit)
24 Jul - 21:40:55 10° NNW 21:46:37 19° N 21:50:44 10° NE visible
25 Jul - 00:06:38 10° NW 00:11:02 22° N 00:14:35 10° NE night (unlit)
25 Jul - 02:33:31 10° NW 02:34:53 11° NNW 02:36:16 10° N night (unlit)
25 Jul - 20:29:21 10° NNW 20:35:25 17° NNE 20:39:50 10° NE visible
25 Jul - 22:54:41 10° NW 23:00:21 24° N 23:04:24 10° NE visible
26 Jul - 01:21:12 10° NW 01:24:19 17° NNW 01:27:11 10° NNE night (unlit)
26 Jul - 19:18:34 10° N 19:23:53 14° NNE 19:28:04 10° NE visible
26 Jul - 21:42:27 10° NW 21:49:26 24° N 21:54:07 10° ENE visible
27 Jul - 00:09:12 10° WNW 00:13:47 22° N 00:17:24 10° NE night (unlit)
27 Jul - 20:30:08 10° NNW 20:38:14 23° NNE 20:43:35 10° ENE visible
27 Jul - 22:56:55 10° WNW 23:03:08 27° N 23:07:26 10° NE visible
28 Jul - 01:24:22 10° NW 01:26:59 14° NNW 01:29:23 10° N night (unlit)
28 Jul - 19:18:07 10° NNW 19:26:41 19° NNE 19:32:34 10° ENE visible
28 Jul - 21:44:15 10° NW 21:52:14 29° N 21:57:19 10° ENE visible
29 Jul - 00:11:52 10° WNW 00:16:30 21° NNW 00:20:06 10° NE night (unlit)
29 Jul - 18:07:07 10° N 18:14:46 15° NNE 18:20:32 10° ENE visible
29 Jul - 20:31:22 10° NW 20:41:01 28° N 20:46:59 10° ENE visible
29 Jul - 22:59:15 10° WNW 23:05:53 28° N 23:10:22 10° NE visible
30 Jul - 01:28:02 10° NW 01:29:35 11° NNW 01:31:02 10° N night (unlit)
30 Jul - 16:59:39 10° NNE 17:02:31 11° NNE 17:05:08 10° NE daylight
30 Jul - 19:18:33 10° NNW 19:29:26 25° NNE 19:36:17 10° ENE visible
30 Jul - 21:46:14 10° WNW 21:55:01 32° N 22:00:23 10° ENE visible
31 Jul - 00:14:39 10° WNW 00:19:09 20° NNW 00:22:40 10° NNE night (unlit)
31 Jul - 18:06:19 10° NNW 18:17:27 21° NNE 18:24:58 10° ENE visible
31 Jul - 20:32:52 10° NW 20:43:47 33° N 20:50:10 10° ENE visible
31 Jul - 23:01:41 10° WNW 23:08:35 28° NNW 23:13:11 10° NE visible
